Orbital Elements at Epoch 2459200.5 (2020-Dec-17.0) TDB
Reference: JPL 20 (heliocentric ecliptic J2000)
Element | Value | Uncertainty (1-sigma) | Units |
e | .1994866024208387 | 4.5104e-08 | |
a | 2.253142003214243 | 7.5536e-09 | au |
q | 1.803670360221351 | 1.013e-07 | au |
i | 3.98261576037992 | 4.9391e-06 | deg |
node | 269.9438586073295 | 6.8324e-05 | deg |
peri | 128.6889027609827 | 6.9514e-05 | deg |
M | 33.02625849245604 | 1.3485e-05 | deg |
tp | 2459087.171759123828 (2020-Aug-25.67175912) | 4.5945e-05 | TDB |
period | 1235.325119396776 3.38 | 6.2121e-06 1.701e-08 | d yr |
n | .2914212577299427 | 1.4655e-09 | deg/d |
Q | 2.702613646207135 | 9.0604e-09 | au |
|
| | Orbit Determination Parameters
Additional Information
|